Location: Atbuku
(36.4936°N, 30.4362°E)
Time: 18:15:33
(UTC+00:00)

IRS-1C - Pass Details

Date: 11 December 2025
Orbit: 813 x 814 km, 99.0° (Epoch: 15 January)

Event Time Altitude Azimuth Distance (km) Brightness Sun altitude
Rises 15:07:43 0° 147° (SSE) 3,324 7.2 -5.3°
Reaches altitude 10° 15:10:09 10° 141° (SE) 2,396 6.4 -5.7°
Maximum altitude 15:15:08 43° 71° (ENE) 1,125 4.5 -6.6°
Drops below altitude 10° 15:20:08 10° 1° (N) 2,409 6.3 -7.5°
Sets 15:22:35 0° 355° (N) 3,345 7.1 -8.0°
